EW6604 Weather Reports


Display with metric or nautical units.
time (UTC)temp
F
wind
direction
speed
MPH
gust
MPH
rain 1hr
in
rain 24hr
in
rain mn
in
humidity
%
barometer
mb
20260508130206 77 289 6.0 8.0 0.00 0.00 0.00 91 1015.2
20260508125707 77 285 3.0 8.0 0.00 0.00 0.00 91 1015.2
20260508125209 77 273 5.0 8.0 0.00 0.00 0.00 91 1015.1
20260508124711 77 278 5.0 10.0 0.00 0.00 0.00 91 1015.1
20260508124211 77 274 7.0 12.0 0.00 0.00 0.00 91 1015.1
20260508123710 76 284 6.0 12.0 0.00 0.00 0.00 92 1015.0
20260508123213 76 290 4.0 8.0 0.00 0.00 0.00 92 1015.0
20260508122719 76 280 4.0 6.0 0.00 0.00 0.00 93 1015.1
20260508122219 76 275 5.0 6.0 0.00 0.00 0.00 93 1015.0
20260508121721 76 267 3.0 6.0 0.00 0.00 0.00 93 1014.9
20260508120728 76 163 0.0 0.0 0.00 0.00 0.00 94 1014.7
20260508120231 76 163 0.0 0.0 0.00 0.00 0.00 94 1014.6
20260508115714 75 163 0.0 0.0 0.00 0.00 0.00 94 1014.6
20260508115214 75 163 0.0 1.0 0.00 0.00 0.00 94 1014.6
20260508114737 75 163 0.0 1.0 0.00 0.00 0.00 94 1014.5
20260508114219 75 194 0.0 3.0 0.00 0.00 0.00 94 1014.5
20260508113211 74 201 1.0 3.0 0.00 0.00 0.00 94 1014.5
20260508112714 74 212 0.0 3.0 0.00 0.00 0.00 94 1014.3
20260508112217 74 227 1.0 4.0 0.00 0.00 0.00 95 1014.3
20260508111710 74 237 2.0 5.0 0.00 0.00 0.00 95 1014.4
20260508111243 74 226 3.0 5.0 0.00 0.00 0.00 95 1014.3
20260508110724 74 217 1.0 2.0 0.00 0.00 0.00 95 1014.1
20260508110208 73 198 0.0 1.0 0.00 0.00 0.00 94 1014.0
20260508105711 73 198 0.0 1.0 0.00 0.00 0.00 94 1013.9
20260508105211 73 198 0.0 1.0 0.00 0.00 0.00 94 1013.9
20260508104734 73 210 0.0 2.0 0.00 0.00 0.00 94 1013.9
20260508104236 73 211 0.0 2.0 0.00 0.00 0.00 94 1013.8
20260508103707 73 207 0.0 0.0 0.00 0.00 0.00 94 1013.8
20260508103225 73 207 0.0 1.0 0.00 0.00 0.00 94 1013.7
20260508102708 73 208 0.0 1.0 0.00 0.00 0.00 94 1013.7
20260508102211 73 208 0.0 0.0 0.00 0.00 0.00 94 1013.6
20260508101714 73 208 0.0 0.0 0.00 0.00 0.00 94 1013.4
20260508101213 73 208 0.0 0.0 0.00 0.00 0.00 94 1013.5
20260508100734 73 208 0.0 1.0 0.00 0.00 0.00 94 1013.4
20260508100234 73 208 0.0 1.0 0.00 0.00 0.00 94 1013.3
20260508095738 73 206 0.0 1.0 0.00 0.00 0.00 94 1013.2
20260508095242 73 205 0.0 1.0 0.00 0.00 0.00 94 1013.2
20260508094724 73 205 0.0 1.0 0.00 0.00 0.00 93 1013.1
20260508094208 73 212 0.0 2.0 0.00 0.00 0.00 93 1013.1
20260508093712 73 217 0.0 2.0 0.00 0.00 0.00 93 1013.1
20260508093236 73 210 0.0 1.0 0.00 0.00 0.00 93 1013.1
20260508092718 73 210 0.0 1.0 0.00 0.00 0.00 93 1013.1
20260508092242 73 210 0.0 0.0 0.00 0.00 0.00 93 1013.0
20260508091705 73 209 0.0 1.0 0.00 0.00 0.00 93 1013.0
20260508091209 73 210 0.0 1.0 0.00 0.00 0.00 93 1012.9
20260508090732 74 210 0.0 1.0 0.00 0.00 0.00 93 1013.0
20260508090217 74 210 0.0 1.0 0.00 0.00 0.00 93 1013.0
20260508085721 74 210 0.0 2.0 0.00 0.00 0.00 93 1012.9
20260508085209 74 221 1.0 2.0 0.00 0.00 0.00 93 1013.0
20260508084732 74 222 1.0 2.0 0.00 0.00 0.00 92 1013.0
20260508084215 74 217 0.0 3.0 0.00 0.00 0.00 92 1013.0
20260508083719 74 224 1.0 3.0 0.00 0.00 0.00 92 1013.0
20260508083244 74 212 1.0 3.0 0.00 0.00 0.00 92 1013.1
20260508082727 74 230 0.0 4.0 0.00 0.00 0.00 92 1013.1
20260508082210 75 245 1.0 4.0 0.00 0.00 0.00 92 1013.1
20260508081715 74 265 2.0 4.0 0.00 0.00 0.00 92 1013.1
20260508081219 74 260 0.0 3.0 0.00 0.00 0.00 92 1013.0
20260508080728 74 260 1.0 3.0 0.00 0.00 0.00 92 1013.1
20260508080212 75 249 2.0 3.0 0.00 0.00 0.00 92 1013.1
20260508075717 75 236 1.0 2.0 0.00 0.00 0.00 92 1013.1
20260508075241 75 233 0.0 2.0 0.00 0.00 0.00 91 1013.1
20260508074723 75 266 2.0 3.0 0.00 0.00 0.00 91 1013.2
20260508074205 75 258 1.0 3.0 0.00 0.00 0.00 91 1013.2
20260508073731 75 246 1.0 3.0 0.00 0.00 0.00 91 1013.3
20260508073215 75 263 2.0 4.0 0.00 0.00 0.00 91 1013.4
20260508072739 75 255 3.0 4.0 0.00 0.00 0.00 91 1013.4
20260508072205 75 271 1.0 3.0 0.00 0.00 0.00 91 1013.4
20260508071730 75 275 2.0 4.0 0.00 0.00 0.00 91 1013.4
20260508071231 75 203 1.0 4.0 0.00 0.00 0.00 91 1013.4
20260508070715 75 272 2.0 4.0 0.00 0.00 0.00 91 1013.5
20260508070222 75 269 1.0 4.0 0.00 0.00 0.00 91 1013.6
20260508065705 75 271 3.0 4.0 0.00 0.00 0.00 90 1013.6
20260508065210 75 267 2.0 4.0 0.00 0.00 0.00 90 1013.7
20260508064714 75 247 2.0 4.0 0.00 0.00 0.00 90 1013.6
20260508064219 75 268 2.0 5.0 0.00 0.00 0.00 90 1013.7
20260508063722 75 260 3.0 5.0 0.00 0.00 0.00 90 1013.7
20260508063207 75 261 2.0 5.0 0.00 0.00 0.00 89 1013.7
20260508062711 75 258 3.0 4.0 0.00 0.00 0.00 89 1013.6
20260508062219 76 263 2.0 6.0 0.00 0.00 0.00 89 1013.7
20260508061724 76 258 3.0 6.0 0.00 0.00 0.00 89 1013.7
20260508061246 76 272 3.0 5.0 0.00 0.00 0.00 88 1013.7
20260508060728 76 241 3.0 4.0 0.00 0.00 0.00 88 1013.8
20260508060212 76 267 3.0 4.0 0.00 0.00 0.00 88 1013.8
20260508055716 76 264 3.0 4.0 0.00 0.00 0.00 88 1013.7
20260508055219 76 196 1.0 4.0 0.00 0.00 0.00 87 1013.8
20260508054724 76 265 3.0 4.0 0.00 0.00 0.00 87 1013.8
20260508054208 76 257 3.0 7.0 0.00 0.00 0.00 87 1013.9
20260508053711 76 279 4.0 7.0 0.00 0.00 0.00 87 1013.9
20260508053217 76 286 3.0 7.0 0.00 0.00 0.00 86 1013.9
20260508052721 76 266 4.0 7.0 0.00 0.00 0.00 86 1014.0
20260508052225 76 251 4.0 7.0 0.00 0.00 0.00 86 1014.0
20260508051739 76 278 3.0 5.0 0.00 0.00 0.00 86 1014.0
20260508051222 76 272 3.0 7.0 0.00 0.00 0.00 85 1014.1
20260508050706 76 255 4.0 7.0 0.00 0.00 0.00 85 1014.1
20260508050214 76 248 4.0 6.0 0.00 0.00 0.00 85 1014.1
20260508045718 76 250 3.0 7.0 0.00 0.00 0.00 85 1014.0
20260508045222 76 264 4.0 8.0 0.00 0.00 0.00 84 1014.0
20260508044707 76 278 3.0 6.0 0.00 0.00 0.00 84 1013.9
20260508044210 77 266 4.0 6.0 0.00 0.00 0.00 84 1013.8
20260508043714 77 260 3.0 7.0 0.00 0.00 0.00 83 1013.8
20260508043221 77 240 5.0 7.0 0.00 0.00 0.00 83 1013.9
20260508042706 77 270 3.0 6.0 0.00 0.00 0.00 83 1013.9
20260508042211 77 267 4.0 9.0 0.00 0.00 0.00 83 1013.9
20260508041736 77 272 5.0 9.0 0.00 0.00 0.00 82 1013.7
20260508041218 77 272 5.0 8.0 0.00 0.00 0.00 82 1013.7
20260508040734 77 272 2.0 7.0 0.00 0.00 0.00 81 1013.8
20260508040225 78 276 3.0 6.0 0.00 0.00 0.00 80 1013.9
20260508035707 78 266 4.0 8.0 0.00 0.00 0.00 80 1013.9
20260508035229 78 222 4.0 8.0 0.00 0.00 0.00 79 1013.8
20260508034732 78 295 2.0 5.0 0.00 0.00 0.00 79 1013.8
20260508034213 78 254 3.0 8.0 0.00 0.00 0.00 78 1013.8
20260508033717 78 269 4.0 8.0 0.00 0.00 0.00 78 1013.8
20260508033225 79 264 4.0 6.0 0.00 0.00 0.00 77 1013.8
20260508032728 79 268 3.0 7.0 0.00 0.00 0.00 77 1013.9
20260508032211 79 276 5.0 8.0 0.00 0.00 0.00 77 1013.8
20260508031731 79 249 5.0 8.0 0.00 0.00 0.00 76 1013.7
20260508031213 79 276 4.0 9.0 0.00 0.00 0.00 75 1013.7
20260508030717 79 254 6.0 11.0 0.00 0.00 0.00 75 1013.7
20260508030222 79 275 6.0 11.0 0.00 0.00 0.00 74 1013.5
20260508025745 80 271 6.0 10.0 0.00 0.00 0.00 74 1013.4
20260508025209 80 255 5.0 10.0 0.00 0.00 0.00 73 1013.5
20260508024711 80 262 6.0 11.0 0.00 0.00 0.00 72 1013.4
20260508024215 80 277 6.0 11.0 0.00 0.00 0.00 72 1013.4
20260508023719 80 274 6.0 9.0 0.00 0.00 0.00 72 1013.4
20260508023224 81 216 6.0 11.0 0.00 0.00 0.00 71 1013.3
20260508022711 81 267 8.0 12.0 0.00 0.00 0.00 71 1013.3
20260508022215 81 269 8.0 12.0 0.00 0.00 0.00 70 1013.3
20260508021717 81 272 6.0 11.0 0.00 0.00 0.00 70 1013.2
20260508021223 81 252 5.0 12.0 0.00 0.00 0.00 70 1013.1
20260508020710 81 268 7.0 12.0 0.00 0.00 0.00 69 1013.1
20260508020215 81 267 6.0 9.0 0.00 0.00 0.00 70 1013.0
20260508015718 81 272 5.0 8.0 0.00 0.00 0.00 69 1012.9
20260508015224 81 271 3.0 6.0 0.00 0.00 0.00 70 1012.8
20260508014727 81 273 1.0 6.0 0.00 0.00 0.00 70 1012.7
20260508014207 81 284 4.0 6.0 0.00 0.00 0.00 68 1012.7
20260508013711 82 261 3.0 6.0 0.00 0.00 0.00 67 1012.6
20260508013215 82 276 4.0 6.0 0.00 0.00 0.00 66 1012.5
20260508012739 82 273 4.0 6.0 0.00 0.00 0.00 66 1012.5
20260508012222 82 234 3.0 7.0 0.00 0.00 0.00 66 1012.5
20260508011729 82 279 4.0 7.0 0.00 0.00 0.00 64 1012.4
20260508011211 82 256 3.0 5.0 0.00 0.00 0.00 64 1012.4
20260508010736 82 284 2.0 5.0 0.00 0.00 0.00 63 1012.4
20260508010217 83 269 2.0 7.0 0.00 0.00 0.00 61 1012.4
20260508005722 83 274 3.0 7.0 0.00 0.00 0.00 60 1012.4
20260508005225 83 276 3.0 5.0 0.00 0.00 0.00 59 1012.3
20260508004708 83 240 2.0 6.0 0.00 0.00 0.00 58 1012.3
20260508004210 84 234 3.0 8.0 0.00 0.00 0.00 57 1012.2
20260508003713 84 246 3.0 8.0 0.00 0.00 0.00 56 1012.2
20260508003239 83 260 3.0 6.0 0.00 0.00 0.00 55 1012.1
20260508002741 83 275 2.0 4.0 0.00 0.00 0.00 55 1012.0
20260508002225 84 288 1.0 3.0 0.00 0.00 0.00 53 1012.0
20260508001709 84 248 1.0 5.0 0.00 0.00 0.00 53 1012.0
20260508001234 84 260 1.0 5.0 0.00 0.00 0.00 50 1012.0
20260508000717 85 271 0.0 4.0 0.00 0.00 0.00 49 1012.0
20260508000221 85 217 2.0 5.0 0.00 0.00 0.00 48 1011.9
20260507235709 86 265 3.0 6.0 0.00 0.00 0.00 46 1011.9
20260507235213 86 267 4.0 5.0 0.00 0.00 0.00 46 1012.0
20260507234716 86 234 2.0 4.0 0.00 0.00 0.00 46 1011.8
20260507234219 87 276 0.0 3.0 0.00 0.00 0.00 44 1011.8
20260507233723 88 203 1.0 6.0 0.00 0.00 0.00 43 1011.8
20260507233209 88 279 4.0 8.0 0.00 0.00 0.00 41 1011.7
20260507232713 89 250 5.0 9.0 0.00 0.00 0.00 39 1011.8
20260507232217 89 281 4.0 9.0 0.00 0.00 0.00 39 1011.7
20260507231722 90 283 6.0 8.0 0.00 0.00 0.00 38 1011.7
20260507231226 90 278 5.0 9.0 0.00 0.00 0.00 37 1011.6
20260507230713 90 279 6.0 10.0 0.00 0.00 0.00 37 1011.7
20260507230218 90 288 6.0 13.0 0.00 0.00 0.00 36 1011.6
20260507225722 91 255 7.0 13.0 0.00 0.00 0.00 35 1011.6
20260507225207 91 284 6.0 12.0 0.00 0.00 0.00 34 1011.5
20260507224710 91 275 6.0 12.0 0.00 0.00 0.00 35 1011.4
20260507224215 90 221 6.0 13.0 0.00 0.00 0.00 36 1011.4
20260507223738 91 284 7.0 11.0 0.00 0.00 0.00 35 1011.4
20260507223224 91 269 7.0 10.0 0.00 0.00 0.00 35 1011.4
20260507222727 91 270 6.0 12.0 0.00 0.00 0.00 36 1011.5
20260507222231 91 307 6.0 13.0 0.00 0.00 0.00 36 1011.4
20260507221715 91 279 8.0 14.0 0.00 0.00 0.00 34 1011.4
20260507221217 91 268 8.0 14.0 0.00 0.00 0.00 35 1011.4
20260507220720 91 276 7.0 14.0 0.00 0.00 0.00 35 1011.5
20260507220220 91 267 7.0 13.0 0.00 0.00 0.00 36 1011.5
20260507215708 91 271 8.0 15.0 0.00 0.00 0.00 34 1011.6
20260507215233 91 285 9.0 15.0 0.00 0.00 0.00 35 1011.5
20260507214716 91 268 8.0 13.0 0.00 0.00 0.00 34 1011.6
20260507214220 91 282 8.0 13.0 0.00 0.00 0.00 35 1011.5
20260507213722 91 281 7.0 13.0 0.00 0.00 0.00 35 1011.6
20260507213208 91 277 7.0 14.0 0.00 0.00 0.00 35 1011.6
20260507212712 91 265 9.0 14.0 0.00 0.00 0.00 36 1011.7
20260507212217 91 272 9.0 13.0 0.00 0.00 0.00 36 1011.6
20260507211721 91 268 8.0 14.0 0.00 0.00 0.00 41 1011.6
20260507211225 91 279 9.0 14.0 0.00 0.00 0.00 39 1011.7
20260507210730 92 273 9.0 17.0 0.00 0.00 0.00 41 1011.7
20260507210213 92 273 7.0 17.0 0.00 0.00 0.00 40 1011.7
20260507205718 92 295 11.0 17.0 0.00 0.00 0.00 40 1011.7
20260507205235 92 244 8.0 13.0 0.00 0.00 0.00 40 1011.9
20260507204723 92 278 7.0 14.0 0.00 0.00 0.00 40 1011.9
20260507204208 91 277 10.0 16.0 0.00 0.00 0.00 39 1011.9
20260507203713 92 283 11.0 18.0 0.00 0.00 0.00 38 1011.8
20260507203218 92 246 10.0 18.0 0.00 0.00 0.00 39 1011.9
20260507202724 92 276 12.0 17.0 0.00 0.00 0.00 42 1011.9
20260507202210 92 291 10.0 16.0 0.00 0.00 0.00 41 1011.9
20260507201715 93 267 8.0 20.0 0.00 0.00 0.00 38 1011.9
20260507201220 92 274 9.0 20.0 0.00 0.00 0.00 36 1011.9
20260507200718 93 263 11.0 19.0 0.00 0.00 0.00 37 1012.0
20260507200223 93 276 11.0 19.0 0.00 0.00 0.00 35 1012.1
20260507195729 93 279 8.0 16.0 0.00 0.00 0.00 36 1012.1
20260507195218 92 267 10.0 16.0 0.00 0.00 0.00 38 1012.1
20260507194724 93 281 10.0 17.0 0.00 0.00 0.00 33 1012.1
20260507194209 93 271 12.0 16.0 0.00 0.00 0.00 33 1012.1
20260507193714 94 298 9.0 17.0 0.00 0.00 0.00 33 1012.2
20260507193240 94 255 12.0 16.0 0.00 0.00 0.00 33 1012.2
20260507192725 93 281 11.0 17.0 0.00 0.00 0.00 34 1012.2
20260507192210 93 275 8.0 17.0 0.00 0.00 0.00 35 1012.2
20260507191732 94 205 8.0 15.0 0.00 0.00 0.00 40 1012.2
20260507191216 93 276 6.0 14.0 0.00 0.00 0.00 37 1012.2
20260507190721 93 274 5.0 13.0 0.00 0.00 0.00 41 1012.2
20260507190209 93 278 5.0 10.0 0.00 0.00 0.00 40 1012.3
20260507185713 93 284 6.0 11.0 0.00 0.00 0.00 41 1012.4
20260507185237 92 277 7.0 16.0 0.00 0.00 0.00 41 1012.5
20260507184707 93 276 8.0 16.0 0.00 0.00 0.00 39 1012.6
20260507184216 93 239 7.0 16.0 0.00 0.00 0.00 40 1012.8
20260507183722 93 268 6.0 16.0 0.00 0.00 0.00 41 1012.8
20260507183224 93 272 3.0 11.0 0.00 0.00 0.00 43 1012.9
20260507182707 92 125 4.0 10.0 0.00 0.00 0.00 45 1012.9
20260507182211 92 172 3.0 12.0 0.00 0.00 0.00 45 1013.0
20260507181714 92 205 4.0 12.0 0.00 0.00 0.00 46 1013.3
20260507181219 92 305 4.0 10.0 0.00 0.00 0.00 46 1013.3
20260507180732 92 276 4.0 10.0 0.00 0.00 0.00 46 1013.4
20260507180237 91 222 5.0 13.0 0.00 0.00 0.00 45 1013.7
20260507175726 91 280 6.0 13.0 0.00 0.00 0.00 46 1013.7
20260507175210 91 258 6.0 13.0 0.00 0.00 0.00 47 1013.8
20260507174715 90 267 4.0 18.0 0.00 0.00 0.00 48 1013.9
20260507174219 91 257 10.0 18.0 0.00 0.00 0.00 46 1014.0
20260507173707 90 284 5.0 13.0 0.00 0.00 0.00 46 1014.0
20260507173212 90 283 9.0 16.0 0.00 0.00 0.00 48 1014.1
20260507172737 90 266 8.0 18.0 0.00 0.00 0.00 48 1014.1
20260507172220 90 279 11.0 18.0 0.00 0.00 0.00 48 1014.1
20260507171725 89 281 5.0 11.0 0.00 0.00 0.00 50 1014.0
20260507171229 89 271 6.0 16.0 0.00 0.00 0.00 52 1014.1
20260507170713 89 284 10.0 15.0 0.00 0.00 0.00 52 1014.1
20260507170239 89 257 7.0 13.0 0.00 0.00 0.00 52 1014.1
20260507165719 89 286 6.0 13.0 0.00 0.00 0.00 52 1014.1
20260507165223 89 284 9.0 16.0 0.00 0.00 0.00 52 1014.0
20260507164707 89 276 8.0 14.0 0.00 0.00 0.00 53 1014.0
20260507164212 89 289 3.0 10.0 0.00 0.00 0.00 54 1014.1
20260507163716 89 247 4.0 10.0 0.00 0.00 0.00 53 1014.1
20260507163241 89 286 4.0 12.0 0.00 0.00 0.00 54 1014.2
20260507162743 89 278 6.0 12.0 0.00 0.00 0.00 54 1014.1
20260507162211 89 239 2.0 7.0 0.00 0.00 0.00 55 1014.2
20260507161715 88 191 3.0 9.0 0.00 0.00 0.00 55 1014.1
20260507161216 88 205 3.0 13.0 0.00 0.00 0.00 55 1014.2
20260507160729 88 286 8.0 13.0 0.00 0.00 0.00 55 1014.2
20260507160223 88 279 4.0 13.0 0.00 0.00 0.00 56 1014.3
20260507155725 88 194 4.0 10.0 0.00 0.00 0.00 55 1014.3
20260507155247 87 182 3.0 10.0 0.00 0.00 0.00 55 1014.3
20260507154712 87 61 4.0 12.0 0.00 0.00 0.00 56 1014.4
20260507154216 87 257 3.0 11.0 0.00 0.00 0.00 56 1014.4
20260507153721 87 132 4.0 11.0 0.00 0.00 0.00 56 1014.5
20260507153225 87 307 4.0 9.0 0.00 0.00 0.00 57 1014.6
20260507152729 87 109 3.0 9.0 0.00 0.00 0.00 56 1014.4
20260507152212 87 170 4.0 11.0 0.00 0.00 0.00 54 1014.4
20260507151717 86 58 3.0 11.0 0.00 0.00 0.00 54 1014.6
20260507151222 86 194 3.0 10.0 0.00 0.00 0.00 55 1014.5
20260507150725 86 288 2.0 7.0 0.00 0.00 0.00 57 1014.6
20260507150210 86 290 3.0 7.0 0.00 0.00 0.00 57 1014.6
20260507145712 86 301 1.0 6.0 0.00 0.00 0.00 59 1014.7
20260507145216 85 196 3.0 6.0 0.00 0.00 0.00 58 1014.8
20260507144725 85 132 2.0 6.0 0.00 0.00 0.00 59 1014.7
20260507144210 85 151 1.0 7.0 0.00 0.00 0.00 59 1014.7
20260507143712 85 86 2.0 7.0 0.00 0.00 0.00 60 1014.8
20260507143216 84 88 2.0 7.0 0.00 0.00 0.00 62 1014.8
20260507142740 84 224 2.0 6.0 0.00 0.00 0.00 63 1015.0
20260507142225 83 210 2.0 6.0 0.00 0.00 0.00 63 1015.0
20260507141709 83 269 2.0 7.0 0.00 0.00 0.00 65 1015.0
20260507141230 83 191 3.0 7.0 0.00 0.00 0.00 66 1015.1
20260507140713 83 340 2.0 7.0 0.00 0.00 0.00 66 1015.1
20260507140217 82 148 2.0 8.0 0.00 0.00 0.00 68 1015.1
20260507135742 82 239 3.0 8.0 0.00 0.00 0.00 67 1014.9
20260507135221 82 155 2.0 6.0 0.00 0.00 0.00 69 1014.9
20260507134745 81 191 2.0 8.0 0.00 0.00 0.00 70 1014.9
20260507134208 81 158 3.0 8.0 0.00 0.00 0.00 70 1015.0
20260507133710 81 127 1.0 6.0 0.00 0.00 0.00 70 1015.0
20260507133219 81 146 2.0 6.0 0.00 0.00 0.00 70 1015.1
20260507132724 80 238 1.0 4.0 0.00 0.00 0.00 71 1015.1
20260507132207 80 108 1.0 5.0 0.00 0.00 0.00 72 1015.1
20260507131710 80 226 1.0 6.0 0.00 0.00 0.00 73 1015.2
20260507131213 79 163 2.0 6.0 0.00 0.00 0.00 73 1015.1